#timestamp,LO_Frequency,Hit,StdDev 
1583650815.4,286047003.3,N
1583650835.3,286047000.2,N
1583650855.1,286047002.5,N
1583650875.8,286047000.3,N
1583650895.7,286047002.3,N
1583650915.5,286047001.8,N
1583650935.4,286047005.7,Y
1583650955.2,286047005.7,P
1583650975.0,286047003.3,N
1583650975.9,286047003.3,N
1583650995.8,286047004.4,N
1583651015.6,286047005.8,Y
1583651035.5,286047002.5,P
1583651055.3,286046999.8,N
1583651075.1,286047000.7,N
1583651095.9,286046997.2,N
1583651115.7,286047000.8,N
1583651135.6,286047001.8,N
1583651155.4,286047000.1,N
1583651175.2,286046996.7,N
1583651195.1,286046999.2,N
1583651196.0,286046999.2,N
1583651215.8,286046999.3,N
1583651235.7,286046999.0,N
1583651255.5,286046996.5,N
1583651275.3,286047002.8,N
1583651295.2,286047002.8,N
1583651315.9,286046998.6,N
1583651335.7,286046998.7,N
1583651355.6,286046998.2,N
1583651375.4,286046998.6,N
1583651395.3,286046998.2,N
1583651415.1,286047001.0,N
1583651416.0,286047001.0,N
1583651435.8,286046996.9,N
1583651455.7,286046999.0,N
1583651475.5,286047000.0,N
1583651495.3,286047001.0,N
1583651515.2,286047002.1,N
1583651535.0,286047002.7,N
1583651535.9,286047002.7,N
1583651555.8,286047000.7,N
1583651575.6,286046998.3,N
1583651595.4,286047001.1,N
1583651615.3,286047000.0,N
1583651635.1,286047000.4,N
1583651655.9,286047001.5,N
1583651675.7,286047001.0,N
1583651695.5,286046999.7,N
1583651715.4,286047000.1,N
1583651735.2,286046998.6,N
1583651755.0,286046999.0,N
1583651755.9,286046999.0,N
1583651775.8,286046998.6,N
1583651795.6,286046998.1,N
1583651815.5,286046999.4,N
1583651835.3,286046999.1,N
1583651855.1,286046999.4,N
1583651875.9,286046996.8,N
1583651895.7,286046996.8,N
1583651915.5,286047000.6,N
1583651935.4,286046998.4,N
1583651955.2,286046998.9,N
1583651975.1,286046997.2,N
1583651976.0,286046997.2,N
1583651995.8,286046998.0,N
1583652015.6,286046999.5,N
1583652035.5,286046998.5,N
1583652055.3,286046998.3,N
1583652075.2,286046997.2,N
1583652095.9,286046997.9,N
1583652115.7,286046999.4,N
1583652135.6,286047000.7,N
1583652155.4,286047000.3,N
1583652175.2,286046999.1,N
1583652195.1,286047000.9,N
1583652196.0,286047000.9,N
1583652215.8,286047001.1,N
1583652235.7,286047002.8,N
1583652255.5,286047002.5,N
1583652275.3,286047003.8,N
1583652295.2,286047003.0,N
1583652315.0,286047001.8,N
1583652315.9,286047001.8,N
1583652335.8,286047002.8,N
1583652355.6,286046999.8,N
1583652375.4,286047000.4,N
1583652395.3,286047001.0,N
1583652415.1,286047003.9,N
1583652435.9,286047001.3,N
1583652455.7,286047001.3,N
1583652475.5,286047002.7,N
1583652495.4,286047002.0,N
1583652515.2,286047000.1,N
1583652535.0,286046999.9,N
1583652535.9,286046999.9,N
1583652555.8,286047000.3,N
1583652575.6,286047000.1,N
1583652595.5,286047000.6,N
1583652615.3,286046998.1,N
1583652635.1,286046998.3,N
1583652655.9,286047000.0,N
1583652675.7,286047002.3,N
1583652695.6,286047000.8,N
1583652715.4,286047002.0,N
1583652735.2,286047002.1,N
1583652755.1,286047000.6,N
1583652756.0,286047000.6,N
1583652775.8,286047001.2,N
1583652795.7,286047002.5,N
1583652815.5,286047001.3,N
1583652835.3,286047000.1,N
1583652855.2,286046999.9,N
1583652875.0,286047001.4,N
1583652875.9,286047001.4,N
1583652895.7,286047004.3,Y
1583652915.6,286047001.8,P
1583652935.4,286047001.5,P
1583652955.3,286047000.9,N
1583652975.1,286047004.3,Y
1583652995.8,286047001.2,P
1583653015.7,286047000.5,P
1583653035.5,286046999.9,N
1583653055.4,286047002.2,Y
1583653075.2,286047000.1,P
1583653095.0,286047002.6,P
1583653096.0,286047002.6,N
1583653115.8,286046998.1,N
1583653135.6,286046998.6,N
1583653155.5,286046998.8,N
1583653175.3,286046998.2,N
1583653195.1,286046997.1,N
1583653215.9,286046999.6,N
1583653235.7,286046999.6,N
1583653255.6,286046997.7,N
1583653275.4,286046996.7,N
1583653295.2,286046998.7,N
1583653315.1,286046998.2,N
1583653316.0,286046998.2,N
1583653335.8,286046998.2,N
1583653355.6,286046998.1,N
1583653375.5,286046998.9,N
1583653395.3,286046998.1,N
1583653415.2,286047000.8,N
1583653435.9,286046998.3,N
1583653455.7,286047002.4,N
1583653475.6,286047000.1,N
1583653495.4,286047001.2,N
1583653515.3,286047002.0,N
1583653535.1,286047002.2,N
1583653536.0,286047002.2,N
1583653555.8,286047002.8,N
1583653575.7,286047001.5,N
1583653595.5,286047001.9,N
1583653615.3,286046999.7,N
1583653635.2,286046998.7,N
1583653655.0,286046999.7,N
1583653655.9,286046999.7,N
1583653675.8,286046998.3,N
1583653695.6,286046995.3,N
1583653715.4,286046996.0,N
1583653735.3,286046993.9,Y
1583653755.1,286046998.8,P
1583653775.9,286046998.9,P
1583653795.7,286046995.6,P
1583653815.5,286046995.4,Y
1583653835.4,286047000.5,P
1583653855.2,286047001.2,N
1583653875.1,286047000.8,N
1583653876.0,286047000.8,N
1583653895.8,286047001.1,N
1583653915.6,286046999.9,N
1583653935.5,286047002.5,N
1583653955.3,286047005.0,Y
1583653975.2,286047001.6,P
1583653995.9,286047002.4,P
1583654015.7,286047001.2,N
1583654035.6,286046998.8,N
1583654055.4,286047001.1,N
1583654075.2,286047000.2,N
1583654095.1,286046998.1,N
1583654096.0,286046998.1,N
1583654115.8,286046998.9,N
1583654135.7,286046999.2,N
1583654155.5,286046996.7,N
1583654175.3,286046999.1,N
1583654195.2,286047001.1,N
1583654215.0,286046999.4,N
1583654215.9,286046999.4,N
1583654235.8,286047000.0,N
1583654255.6,286047000.1,N
1583654275.4,286047001.1,N
1583654295.3,286047002.8,N
1583654315.1,286046998.7,N
1583654335.9,286046999.4,N
1583654355.7,286046998.8,N
1583654375.5,286047000.3,N
1583654395.4,286047000.7,N
